Starlink 5682

operational
NORAD ID: 55457 Int'l Des: 2023-015 Owner: SPXS Country: US Constellation: starlink
LEOCIRCULAR

About Starlink 5682

Description loading...

Live Position

Loading 3D Globe...

Upcoming Passes

Altitude History

Altitude vs Time

uPlot chart will show altitude changes over time

Two-Line Element Set

1 55457U 23015J 26102.41529620 .00001058 00000-0 49103-4 0 9992
2 55457 43.0017 137.9398 0001069 273.1788 86.8941 15.26752537175883
Epoch: Apr 12, 2026 • Age: 9 hours

Current Status

Altitude 490.2 km
Velocity 7.62 km/s
Sub-Earth Point -22.14°S, 19.59°W
Launch Date Feb 2, 2023
Age 3.1 years
Type internet

Technical Details

Classification Payload
Mass 305.00 kg
Dry Mass 290.00 kg
Total Mass 305.00 kg
Length 0.20 m
Diameter 2.80 m
Span 9.00 m
Shape Box + pan
Manufacturer SPXS
Bus Type Starlink
Phase Status In Orbit
Owner/State SPXS/US

Large Constellations

Loading constellations...